Skip Page Navigation
NASA JPL Caltech
NASA Logo - Jet Propulsion Laboratory + View the NASA Portal
+ Center for Near-Earth Object Studies
JPL Home Earth Solar System Stars & Galaxies Technology
JPL Solar System Dynamics
BODIES ORBITS EPHEMERIDES TOOLS PHYSICAL DATA DISCOVERY FAQ SITE MAP
JPL Small-Body Database Browser
Search: [ help ]  
243031 (2006 UV295)
Classification: Main-belt Asteroid          SPK-ID: 2243031
Ephemeris | Orbit Diagram | Orbital Elements | Mission Design | Physical Parameters | Discovery Circumstances | Close-Approach Data ]

[ show orbit diagram ]
Orbital Elements at Epoch 2459000.5 (2020-May-31.0) TDB
Reference: JPL 7 (heliocentric ecliptic J2000)
 Element Value Uncertainty (1-sigma)   Units 
e .1633173340573816 8.1918e-08  
a 2.872662067008005 3.6249e-08 au
q 2.40350655657649 2.4386e-07 au
i .4846429708945235 9.0044e-06 deg
node 9.158495735950579 0.001257 deg
peri 218.9235966395729 0.0012575 deg
M 32.86102444175297 3.7404e-05 deg
tp 2458838.168114143454
(2019-Dec-20.66811414)
0.0001834 TDB
period 1778.382746768652
4.87
3.3661e-05
9.216e-08
d
yr
n .2024311136925532 3.8316e-09 deg/d
Q 3.341817577439519 4.2169e-08 au
  Orbit Determination Parameters
   # obs. used (total)      79  
   data-arc span      6860 days (18.78 yr)  
   first obs. used      2000-05-01  
   last obs. used      2019-02-11  
   planetary ephem.      DE431  
   SB-pert. ephem.      SB431-N16  
   condition code      0  
   norm. resid. RMS      .68482  
   source      ORB  
   producer      Otto Matic  
   solution date      2019-Jul-14 12:24:34  

Additional Information
 Earth MOID = 1.39365 au 
 Jupiter MOID = 1.64731 au 
 T_jup = 3.277 
[ show covariance matrix ]

Ephemeris | Orbit Diagram | Orbital Elements | Mission Design | Physical Parameters | Discovery Circumstances | Close-Approach Data ]

Physical Parameter Table
Parameter Symbol Value Units Sigma Reference Notes
absolute magnitude H 17.2   n/a MPO470591  
diameter diameter 2.622 km 0.536 urn:nasa:pds:neowise_diameters_albedos::2.0[mainbelt] (http://adsabs.harvard.edu/abs/2011ApJ...741...68M)  
geometric albedo albedo 0.034   0.009 urn:nasa:pds:neowise_diameters_albedos::2.0[mainbelt] (http://adsabs.harvard.edu/abs/2011ApJ...741...68M)  

243031 (2006 UV295)          Discovered 2006-Oct-19 by Buie, M. W. at Kitt Peak
Reference: 20100626/Numbers.arcLast Updated: 2010-06-28

[ show close-approach data ]
Ephemeris | Orbit Diagram | Orbital Elements | Mission Design | Physical Parameters | Discovery Circumstances | Close-Approach Data ]
ABOUT SSD CREDITS/AWARDS PRIVACY/COPYRIGHT GLOSSARY LINKS
FirstGov 2020-Aug-07 19:14 UT
(server date/time)  
NASA Home Page
Site Manager:   Ryan S. Park
Webmaster  Alan B. Chamberlin